EHI
4 9 19 23 15 4 0 0 0 0 0 0 0 0 0 0 0 0 0 1 2 2 1 2 2 1 0 0 0 0 0 0 0 0 0 0 0 0 0 0 0 0 1 1 1 2 3 3 3
7 15 23 21 10 2 0 0 0 0 0 0 0 0 0 0 0 0 0 1 2 2 1 1 2 1 0 0 0 0 0 0 0 0 0 0 0 0 0 0 0 0 0 0 0 1 2 3 3
17 22 24 15 5 0 0 0 0 0 0 0 0 0 0 0 0 0 0 0 1 1 2 2 2 0 0 0 0 0 0 0 0 0 0 0 1 0 0 0 0 0 0 0 0 0 1 3 5
32 28 19 9 2 0 0 0 0 0 0 0 0 0 0 0 0 0 0 0 0 1 2 3 2 0 0 0 0 0 0 0 0 0 0 0 0 0 0 0 0 0 0 1 1 1 2 4 6
38 27 14 5 1 0 0 0 0 0 0 1 1 1 0 0 0 0 0 0 0 2 3 3 2 1 1 1 1 1 0 0 0 0 0 0 0 0 0 1 1 1 1 2 2 3 3 5 6
28 20 8 2 0 0 0 0 0 0 0 1 2 1 0 0 0 0 0 0 0 2 5 4 3 3 2 2 2 2 1 1 1 1 1 1 2 2 2 3 3 2 3 3 3 4 5 6 6
18 12 4 0 0 0 0 0 0 0 0 0 1 1 0 0 0 0 0 0 0 1 4 5 4 3 3 3 3 3 3 3 3 4 3 4 5 6 6 5 4 3 3 3 3 4 5 6 6
11 7 2 0 0 0 0 0 0 0 0 0 0 0 0 0 0 0 0 0 0 0 2 4 4 3 2 3 4 5 6 6 6 6 5 5 6 6 7 6 4 3 3 3 3 3 4 4 4
6 4 1 0 0 0 0 0 0 0 0 0 0 0 0 0 0 0 0 0 0 0 1 2 4 3 2 2 4 6 7 6 6 6 6 4 4 4 4 5 5 4 4 3 3 3 4 4 3
3 1 0 0 0 0 0 0 0 0 0 1 2 1 0 0 0 0 0 0 0 0 1 2 4 4 2 1 3 5 6 6 5 4 4 4 3 3 2 3 5 6 5 4 3 3 4 4 3
2 1 0 0 0 0 0 0 0 0 0 2 4 4 1 0 0 0 0 0 0 0 1 3 5 5 3 1 1 2 4 5 5 5 5 4 3 2 1 2 4 5 4 4 3 3 2 2 1
1 0 0 0 0 0 0 0 0 0 1 3 4 4 1 0 0 0 1 0 0 1 1 3 6 6 6 4 2 2 2 3 4 7 7 5 4 2 1 1 2 2 3 4 4 3 1 0 0
0 0 0 0 0 0 0 0 0 1 2 3 3 2 1 0 0 0 0 0 0 1 3 4 5 6 8 9 6 2 1 2 4 7 9 7 4 3 3 3 2 1 2 4 4 2 2 2 1
0 0 0 0 0 0 0 0 1 2 3 3 3 2 2 2 1 0 0 0 0 2 5 7 7 7 9 10 8 3 2 3 4 6 8 7 5 5 6 5 4 2 3 4 4 3 4 4 4
0 0 0 0 0 0 1 1 2 3 3 3 3 3 3 2 2 2 1 1 1 4 7 9 8 9 11 11 7 3 2 4 5 6 7 7 7 7 6 5 4 3 4 5 6 6 6 6 6
0 0 0 0 0 0 0 1 2 3 3 4 4 4 3 2 3 3 2 1 3 7 10 8 6 9 14 14 10 6 5 7 8 9 9 11 11 9 7 5 5 4 5 7 7 7 7 6 6
0 0 0 0 0 0 0 0 1 2 3 5 5 6 5 3 4 5 3 3 6 11 14 11 9 12 17 19 16 12 10 10 11 11 13 15 14 11 9 9 7 7 8 8 9 9 9 8 8
0 0 0 0 0 0 0 0 0 1 3 5 7 8 8 5 5 6 6 6 10 18 23 22 18 19 22 22 20 17 14 12 12 12 13 15 14 12 13 13 12 11 11 10 11 14 15 15 14
0 0 0 0 0 0 0 0 0 1 3 5 7 11 12 10 9 9 10 10 15 24 33 32 27 24 22 21 20 17 13 11 13 15 15 15 14 13 14 15 16 15 14 12 14 16 18 19 19
0 0 0 0 0 0 0 0 0 1 2 4 7 13 17 17 16 15 13 13 17 27 35 35 32 27 22 19 19 15 11 11 12 16 20 20 17 15 14 16 18 17 16 16 17 17 17 18 20
0 0 0 0 0 0 0 0 1 1 1 3 6 12 18 23 25 22 18 16 19 27 33 34 34 31 25 20 17 13 12 11 11 16 23 24 20 18 18 20 20 18 18 18 18 19 19 21 22
0 0 0 0 0 0 0 1 1 1 1 2 4 8 15 22 28 28 24 20 20 25 30 35 38 37 31 25 19 16 14 13 13 17 21 23 22 22 23 24 23 21 19 18 18 19 23 25 26
0 0 0 0 0 0 0 1 1 1 0 2 3 5 9 17 26 30 28 23 20 21 27 36 43 42 36 30 25 22 19 16 16 18 21 24 26 25 25 25 25 23 20 18 17 18 21 24 25
0 0 0 0 0 0 0 1 1 1 1 2 4 4 6 14 24 30 31 27 22 22 27 38 46 43 38 34 30 27 24 21 20 21 22 25 27 27 25 25 26 24 20 19 19 19 20 21 22
0 0 0 0 0 0 0 1 3 3 2 4 6 6 8 14 22 30 33 31 27 26 32 43 49 44 36 32 32 31 29 26 24 24 25 25 25 26 25 25 27 25 21 21 22 21 20 20 20
0 0 0 0 0 0 0 2 4 4 3 4 5 7 10 14 20 27 32 32 30 30 36 46 51 47 37 32 33 34 33 30 28 27 27 26 25 25 26 27 28 26 23 22 23 22 20 19 19
0 0 0 0 0 0 1 3 5 4 3 2 4 8 11 15 21 27 30 31 33 35 40 46 52 50 43 38 37 36 35 33 33 32 28 26 25 26 28 29 29 27 24 24 24 23 21 20 19
0 0 0 0 0 0 1 3 4 3 3 3 5 9 13 17 23 27 29 31 34 37 42 48 53 53 49 45 40 37 36 37 36 33 27 25 25 25 28 30 29 27 25 25 25 23 21 21 21
0 0 0 0 0 0 0 1 1 2 3 4 6 11 15 18 23 27 30 33 35 37 42 49 53 52 49 46 42 38 37 37 35 30 26 25 25 24 25 28 27 26 25 25 25 23 21 22 22
0 0 0 0 0 0 0 0 0 1 3 5 7 12 15 18 21 26 30 34 35 36 42 48 51 49 47 46 43 40 38 36 32 28 25 25 24 24 24 24 25 25 23 24 24 22 21 23 23
Wind_Speed
10 11 9 5 3 2 11 11 11 10 10 10 11 12 15 14 10 9 6 7 9 11 10 10 10 9 9 9 9 9 9 9 8 8 8 8 8 8 9 10 10 10 10 10 10 10 10 10 10
10 11 7 5 0 7 11 10 11 10 9 9 12 14 14 14 12 10 7 7 10 11 10 10 10 9 9 9 9 9 9 8 7 7 7 7 7 8 8 9 9 9 9 9 10 10 10 10 10
12 11 6 2 6 9 10 9 10 11 10 10 12 13 11 10 11 8 7 7 10 12 11 11 10 9 9 9 9 8 8 8 7 6 6 6 7 8 8 9 8 8 8 9 9 9 9 9 9
8 7 4 2 14 14 11 9 9 10 10 10 11 12 12 11 9 9 8 8 10 12 11 11 10 9 8 8 8 8 8 7 6 5 5 6 7 7 8 8 8 8 7 8 8 8 8 9 9
8 3 1 8 15 12 11 10 10 11 11 12 14 15 13 12 12 10 8 7 9 11 11 10 10 9 8 7 7 7 7 6 6 5 5 6 7 7 8 7 8 8 7 7 7 8 8 8 9
6 3 3 10 13 11 10 9 10 12 12 12 14 14 11 10 10 9 8 7 9 9 10 9 10 9 8 7 7 6 6 5 5 6 6 6 7 7 8 7 8 7 7 6 6 7 8 8 9
4 0 6 11 12 11 9 9 10 11 11 10 11 13 10 9 9 9 8 8 8 8 8 8 7 8 8 7 7 6 5 4 4 5 5 6 7 8 8 8 7 7 6 6 6 7 9 10 10
4 2 7 10 11 11 10 10 10 10 10 9 9 9 10 9 8 9 8 8 7 7 7 6 6 6 7 7 7 7 5 4 4 4 5 5 7 8 9 8 7 6 6 6 6 7 9 11 10
1 3 7 9 10 11 10 11 11 10 11 11 12 12 13 12 10 8 7 7 5 5 5 5 5 4 4 6 7 6 6 4 4 4 4 4 3 5 6 8 8 7 7 7 7 9 9 10 10
2 5 10 10 10 11 10 11 10 10 11 12 13 14 13 11 9 7 7 7 5 4 5 5 5 3 3 4 4 3 3 3 3 2 2 2 2 3 6 8 8 7 7 7 7 8 8 6 5
7 9 10 10 11 11 11 10 9 10 10 11 12 12 11 11 9 7 7 6 5 3 4 5 5 4 4 3 3 2 2 2 3 3 2 2 2 3 3 3 4 5 6 4 6 6 3 3 3
8 8 10 10 9 11 11 11 11 11 11 12 12 11 11 9 8 7 7 6 5 4 5 6 6 4 4 3 2 2 2 2 2 3 2 2 2 3 3 2 3 3 2 3 3 3 4 4 4
6 7 9 9 9 11 11 11 12 13 13 12 13 11 10 9 8 7 7 7 6 5 5 6 5 5 4 3 2 3 2 3 3 2 2 3 2 3 3 2 2 2 3 3 3 4 4 4 4
5 6 7 8 9 9 10 11 11 13 13 12 12 10 9 8 8 8 7 7 6 5 5 6 6 5 3 2 1 1 2 3 3 2 3 3 3 2 3 2 2 3 3 3 3 4 4 3 3
4 4 5 7 7 9 9 9 10 12 12 11 10 10 9 8 8 8 7 7 6 5 5 6 5 5 3 2 1 2 2 3 3 2 3 3 3 3 3 3 2 2 3 3 3 4 3 3 3
2 3 3 6 7 8 5 8 10 10 11 11 10 9 9 8 8 8 8 7 6 5 5 4 5 6 4 3 2 2 2 2 2 3 3 2 3 3 3 2 2 2 3 3 3 2 2 2 3
6 5 6 5 5 6 5 9 11 11 11 10 10 10 9 9 8 8 8 8 7 6 5 4 4 4 4 3 2 2 2 2 2 3 3 2 3 3 2 2 2 2 2 2 3 3 2 2 2
3 2 3 6 6 5 6 9 10 9 9 11 11 10 9 10 9 8 8 8 8 7 5 4 4 3 3 3 2 1 2 2 2 3 2 2 2 3 2 3 2 2 2 2 2 3 2 2 2
1 1 1 4 5 4 5 7 10 10 8 10 11 11 10 10 10 9 8 8 8 7 6 4 4 3 2 1 1 2 2 1 2 3 3 2 2 2 1 2 2 2 2 2 3 2 2 2 2
4 2 2 3 4 3 4 6 9 10 9 9 10 11 12 11 11 10 9 8 8 7 6 6 4 4 3 2 1 1 2 1 2 2 2 2 2 1 2 1 2 2 2 2 2 2 1 1 2
3 3 3 2 2 3 3 4 7 9 8 9 10 10 12 12 13 11 10 9 8 8 7 5 4 4 3 3 2 2 2 1 1 2 2 2 2 2 1 2 1 2 2 2 3 3 3 2 1
5 4 4 3 3 3 4 3 6 8 9 8 8 10 11 12 13 13 11 10 9 9 8 6 5 4 3 3 2 2 2 2 2 1 2 2 2 2 2 2 2 1 1 2 3 3 2 2 2
5 3 5 6 6 5 3 2 6 8 8 9 8 9 10 11 13 13 12 11 10 10 9 8 6 5 4 3 2 1 1 1 1 2 2 2 1 2 2 2 2 1 1 1 1 1 1 2 2
5 5 6 7 6 5 4 2 5 6 7 9 9 8 9 10 12 12 12 10 9 9 9 9 7 6 4 4 3 2 1 1 1 1 1 2 2 2 2 2 1 1 1 1 1 2 2 2 2
7 5 4 4 4 6 5 2 4 8 7 7 8 8 8 10 10 11 12 11 10 10 9 9 9 7 6 5 4 3 2 2 2 2 2 2 1 1 1 1 1 1 2 2 2 2 2 2 2
8 7 6 5 4 4 4 2 4 8 8 8 8 8 8 9 10 11 11 11 10 10 9 9 9 8 6 5 4 3 2 2 2 2 2 1 1 1 2 2 2 2 2 2 1 2 2 2 2
9 9 9 7 8 5 1 4 4 6 8 9 9 8 7 8 9 10 11 11 10 10 9 9 9 8 7 6 5 4 3 2 1 1 1 1 1 1 2 2 2 2 2 2 1 2 2 2 2
12 11 7 6 5 5 2 3 4 5 5 7 9 8 7 7 8 9 9 9 9 8 8 8 8 7 6 6 5 5 4 3 2 1 1 0 0 1 1 1 1 1 2 2 1 2 2 2 2
11 11 8 5 5 5 4 1 4 5 6 6 7 9 7 6 8 8 8 9 8 8 8 8 8 7 6 5 4 3 3 3 2 1 1 0 0 0 1 1 1 2 2 2 2 3 2 2 2
11 11 9 6 5 5 3 2 2 3 4 5 7 9 9 7 7 7 7 8 8 7 7 7 7 7 6 5 4 3 3 3 3 2 2 1 1 1 1 1 1 2 2 2 2 3 2 2 3
Wind_Direction
194 210 216 233 230 94 68 63 66 64 63 57 55 62 63 52 57 84 105 100 103 105 106 97 85 80 79 78 79 78 82 86 92 98 104 110 113 115 119 127 129 132 136 138 141 142 141 142 142
214 219 225 243 134 74 70 72 70 65 71 80 71 69 68 62 73 94 95 95 107 108 103 98 93 85 83 82 81 81 80 82 87 95 104 113 118 121 123 128 131 133 137 140 145 146 148 146 147
242 240 248 224 72 75 80 81 82 79 72 74 76 65 59 72 77 88 98 103 104 105 102 103 101 94 87 84 84 82 78 80 83 89 101 111 119 121 124 128 130 132 136 143 149 151 153 151 152
241 233 231 89 75 75 85 91 88 87 78 73 81 76 67 68 83 96 105 104 102 103 102 106 108 100 92 87 87 84 80 78 78 83 101 115 126 126 128 128 131 133 134 141 151 154 155 156 157
235 254 129 84 79 82 85 86 85 83 79 76 81 86 80 79 93 102 104 100 100 103 109 113 114 110 104 95 93 90 83 79 75 78 97 120 127 124 123 125 130 131 133 137 145 154 158 157 160
247 217 103 88 88 83 80 85 88 86 84 87 94 95 87 95 99 97 91 87 87 99 107 117 126 123 114 110 107 100 92 86 81 81 97 114 126 125 121 123 128 132 133 138 148 159 163 165 167
251 43 90 96 95 92 88 85 84 89 87 86 93 97 100 101 104 102 96 89 84 91 103 119 132 134 128 128 122 116 111 105 101 103 102 109 129 130 129 129 132 137 140 145 149 160 167 168 169
238 93 85 90 94 94 97 95 91 89 83 86 93 98 114 118 113 107 100 94 90 93 99 111 117 129 142 138 136 133 129 125 125 125 120 121 137 140 139 136 138 143 146 149 153 156 157 164 167
240 85 77 87 94 100 104 101 98 94 90 80 79 97 115 121 113 108 103 100 91 88 92 97 96 115 123 125 130 145 145 144 137 144 147 147 143 140 144 134 136 142 150 152 150 147 149 158 166
110 83 77 87 98 106 106 106 113 107 97 92 94 103 117 121 120 116 111 103 93 89 92 85 80 77 98 107 122 145 136 143 136 112 139 152 116 114 126 131 141 144 148 148 147 148 153 160 162
80 79 87 90 100 109 107 102 99 105 106 108 112 117 122 122 120 115 109 102 99 100 95 92 80 58 57 75 104 110 117 117 116 108 108 102 102 105 114 126 140 149 154 152 146 151 151 152 137
83 82 87 90 97 103 100 102 99 92 99 109 115 120 122 124 124 121 115 110 106 96 83 83 80 66 51 50 73 111 100 102 100 105 94 98 90 97 99 112 130 136 133 125 127 124 119 117 112
100 96 96 103 101 99 102 97 99 99 107 112 117 123 128 130 127 120 114 111 108 97 89 84 82 71 59 43 21 82 89 95 95 91 81 90 95 94 96 104 110 119 116 128 124 116 117 116 115
102 109 117 116 114 118 109 109 107 113 118 121 125 132 133 131 129 122 116 110 108 103 97 95 90 81 67 64 51 59 87 93 90 84 84 95 95 99 109 105 100 106 110 108 125 129 127 123 121
118 129 132 127 133 119 109 108 111 125 127 128 132 133 133 132 130 126 119 114 113 107 100 109 107 95 80 59 42 79 88 96 102 100 98 102 106 111 114 115 116 115 123 125 121 124 127 132 133
190 202 153 139 139 132 142 114 120 139 135 135 138 136 135 131 130 127 125 123 118 111 102 95 101 105 103 83 44 45 67 92 103 104 102 105 104 117 124 129 127 127 124 124 123 133 133 129 127
195 197 162 143 131 129 142 119 135 148 141 141 144 142 142 140 140 136 138 137 129 118 114 105 88 100 108 109 98 89 72 62 74 85 90 94 98 104 120 122 129 151 134 128 137 126 127 125 128
177 189 145 139 131 130 119 122 136 143 147 149 149 148 150 149 148 145 145 138 130 126 125 121 109 95 104 115 122 104 89 85 86 87 78 87 100 105 110 122 125 126 109 103 111 118 134 140 143
229 217 176 119 123 141 129 134 141 145 159 154 152 153 155 153 151 151 149 143 138 134 132 126 119 117 104 82 132 127 110 106 94 104 97 100 101 113 105 101 113 115 118 133 136 132 149 157 148
226 232 197 146 144 160 148 142 139 149 157 152 153 158 159 157 153 153 155 155 149 145 144 142 142 137 137 122 108 115 113 114 113 101 115 121 120 136 140 121 133 125 137 152 153 151 155 173 163
247 238 240 193 181 183 180 158 147 150 145 148 155 159 159 160 159 159 161 160 156 153 152 150 143 139 145 146 143 121 118 95 93 111 123 126 148 148 124 133 139 152 164 158 171 179 182 194 207
252 251 265 257 245 228 191 148 159 157 154 153 159 161 160 159 159 161 163 162 163 158 154 147 143 139 140 149 150 156 153 158 150 147 136 145 163 154 156 153 153 181 180 166 198 165 204 204 218
269 297 291 286 275 271 199 178 159 152 160 159 164 160 155 159 159 162 164 165 166 161 157 154 144 144 147 150 145 165 144 159 151 147 153 156 165 176 171 168 168 181 209 193 206 169 237 248 244
256 266 275 273 277 264 242 191 144 148 153 155 156 154 155 155 154 156 156 158 162 159 157 153 148 154 160 164 156 163 167 191 176 173 180 178 177 184 184 183 174 187 226 226 220 224 232 253 273
238 252 271 272 261 248 223 202 131 128 130 138 145 148 149 148 150 154 155 160 163 163 159 152 153 164 169 173 168 175 194 202 206 219 208 198 182 181 183 180 181 199 221 232 217 235 246 246 255
245 243 244 250 250 249 203 135 119 124 131 134 138 142 146 148 151 154 157 162 167 163 158 157 158 164 171 174 173 177 197 207 213 237 235 221 190 175 142 174 197 223 236 236 212 237 238 228 237
244 245 244 256 267 267 158 116 142 124 129 132 139 143 154 155 152 154 160 164 165 162 162 162 160 164 173 173 172 170 183 212 208 245 262 200 237 205 154 181 199 225 246 246 227 252 257 237 237
241 255 253 249 265 276 253 175 159 141 141 143 145 145 143 146 142 148 154 155 156 157 157 158 160 163 169 168 181 178 183 188 179 196 280 15 331 23 140 195 222 238 248 253 237 250 242 235 242
231 246 262 289 282 262 271 312 143 175 167 154 144 137 137 152 141 147 149 151 152 158 158 156 156 158 167 170 174 169 171 171 169 177 183 204 175 236 265 244 237 243 249 248 240 249 252 253 254
247 248 246 246 256 276 273 291 220 216 161 149 135 130 143 153 139 139 142 147 152 157 159 156 161 166 166 163 165 170 171 173 180 182 181 193 189 222 244 260 265 255 244 240 242 253 252 247 254